Hourly Weather Roundup
Issued by NWS Central Illinois

Home | Current Version | Previous Version | Text Only | Print | Product List | Glossary On
Versions: 1 2 3 4 5 6 7 8 9 10 11 12 13 14 15 16 17 18 19 20 21 22 23 24 25 26 27 28 29 30 31 32 33 34 35 36 37 38 39 40 41 42 43 44 45 46 47 48 49 50
000
NZUS43 KILX 071710
HWRILX

AREA WEATHER ROUNDUP
NATIONAL WEATHER SERVICE, LINCOLN IL
1200 PM CDT TUE JUL 07 2015


CITY           SKY/WX    TMP DP  RH WIND       PRES   REMARKS
BLOOMINGTON    PTSUNNY   62  60  93 NE20      30.01R
CHAMPAIGN      CLOUDY    64  61  90 N14       29.95R FOG
DANVILLE       RAIN      64  62  93 N13       29.92R
DECATUR        CLOUDY    66  63  90 N16       29.97R FOG
EFFINGHAM      CLOUDY    74  71  88 SW6       29.96R FOG
FLORA          CLOUDY    78  71  78 SW12G17   29.95R HX  80
GALESBURG      PTSUNNY   69  60  72 N13G18    30.03R HAZE
JACKSONVILLE   CLOUDY    67  64  89 N10       30.01R FOG
LACON          CLOUDY    61  59  92 NE10G16   30.02R FOG
LAWRENCEVILLE  CLOUDY    80  73  79 SW15      29.92S HX  84
LITCHFIELD     CLOUDY    67  65  91 NW10      29.98R
$$


CITY           SKY/WX    TMP DP  RH WIND       PRES   REMARKS
LINCOLN        NOT AVBL
MACOMB           N/A     67  61  82 NE14      30.04R HAZE
MATTOON        LGT RAIN  76  74  93 W10       29.92R
MT CARMEL AP   LGT RAIN  79  72  78 S13       29.93S HX  82
OLNEY-NOBLE AP CLOUDY    77  72  83 SW7       29.94R
PARIS          DRIZZLE   76  73  92 N6        29.91S
PEORIA         CLOUDY    66  61  84 NE8       30.01R HAZE
PONTIAC        CLOUDY    66  60  80 NE15      30.01S
RANTOUL        LGT RAIN  63  60  89 N16G25    29.96R
ROBINSON       CLOUDY    80  72  75 SW16      29.91S HX  84
SPRINGFIELD    CLOUDY    68  64  87 N12       29.99R
TAYLORVILLE    CLOUDY    66  64  94 N6        29.97R FOG
$$

...REGIONAL REPORTS...


CITY           SKY/WX    TMP DP  RH WIND       PRES   REMARKS
CHICAGO O`HARE PTSUNNY   67  49  52 N21G26    30.01R
KANKAKEE       CLOUDY    64  55  73 N13G18    30.00R
MOLINE         MOSUNNY   71  57  61 N10G20    30.03S HAZE
MOUNT STERLING NOT AVBL
MOUNT VERNON   CLOUDY    79  70  73 SW12      29.96R HX  81
PITTSFIELD     CLOUDY    66  62  86 N7        30.03R FOG
QUINCY         CLOUDY    66  60  81 N9        30.03R HAZE
ROCKFORD       CLOUDY    71  57  61 N16G23    30.04R
$$


CITY           SKY/WX    TMP DP  RH WIND       PRES   REMARKS
BURLINGTON     MOSUNNY   72  60  66 NE13      30.03R HAZE
CEDAR RAPIDS   PTSUNNY   67  58  72 N10       30.07R
DES MOINES     MOSUNNY   69  51  52 N12G21    30.11R
KIRKSVILLE     LGT RAIN  73  59  61 N13       30.07R
OTTUMWA        MOSUNNY   69  58  67 N12G22    30.06R
ST LOUIS       CLOUDY    72  66  83 NW9       29.99R FOG
$$


CITY           SKY/WX    TMP DP  RH WIND       PRES   REMARKS
TERRE HAUTE    CLOUDY    81  74  79 SW8       29.89F HX  86
EVANSVILLE     HVY RAIN  74  71  91 SW14      29.99R FOG
INDIANAPOLIS   TSTM      69  66  90 SE6       29.93S FOG
LAFAYETTE      CLOUDY    65  62  90 N12       29.93R FOG
MADISON        PTSUNNY   65  52  62 N13G18    30.05R
MILWAUKEE      PTSUNNY   65  49  56 NE15G23   30.03R
$$




USA.gov is the U.S. government's official web portal to all federal, state and local government web resources and services.